Weather History for Savanna, IL

Change the Weather History Date:

Sunday, January 22, 2012

  Actual Average (KCWI) Record (KCWI)
Temperature  
Mean Temperature 25 °F -  
Max Temperature 35 °F 33 °F 60 °F (1964)
Min Temperature 15 °F 16 °F -20 °F (1970)
Degree Days  
Heating Degree Days 40    
Moisture  
Dew Point 25 °F    
Average Humidity 93    
Maximum Humidity 98    
Minimum Humidity 82    
Precipitation  
Precipitation 0.00 in - - ()
Sea Level Pressure  
Sea Level Pressure 29.78 in    
Wind  
Wind Speed 14 mph (SE)    
Max Wind Speed 21 mph    
Max Gust Speed 24 mph    
Visibility 3 miles    
Events Fog , Rain , Snow    
Averages and records for this station are not official NWS values.
T = Trace of Precipitation, MM = Missing Value Source: NWS Daily Summary

Daily Weather History Graph

Daily Weather History Graph

Search for Another Location

Airport:

Trip Planner

Search our weather history database for the weather conditions in past years. The results will help you decide how hot, cold, wet, or windy it might be!

Date:

Astronomy

Jan. 22, 2012 Rise Set
Actual Time 7:22 AM CST 5:01 PM CST
Civil Twilight 6:51 AM CST 5:32 PM CST
Nautical Twilight 6:17 AM CST 6:06 PM CST
Astronomical Twilight 5:44 AM CST 6:39 PM CST
Moon 6:39 AM CST (1/22) 4:44 PM CST (1/22)
Length of Visible Light 10h 40m
Length of Day
9h 39m
Waning Crescent, 0% of the Moon is Illuminated
Jan 22
Waning Crescent
Jan 23
New
Jan 30
First Quarter
Feb 7
Full
Feb 14
Last Quarter

Hourly Weather History & Observations

Time (CST) Temp. Windchill Dew Point Humidity Pressure Visibility Wind Dir Wind Speed Gust Speed Precip Events Conditions
12:15 AM 17.1 °F 3.0 °F 12.6 °F 82% 30.00 in 10.0 mi SE 13.8 mph - N/A   Clear
12:35 AM 16.9 °F 3.4 °F 12.4 °F 82% 30.01 in 10.0 mi SE 12.7 mph - N/A   Clear
12:55 AM 17.1 °F 2.0 °F 12.7 °F 83% 29.99 in 10.0 mi SE 16.1 mph 21.9 mph N/A   Clear
1:15 AM 17.2 °F 3.9 °F 12.9 °F 83% 29.98 in 10.0 mi SE 12.7 mph - N/A   Clear
1:35 AM 16.7 °F 2.6 °F 12.6 °F 84% 29.98 in 10.0 mi SE 13.8 mph - N/A   Clear
1:55 AM 15.8 °F 2.1 °F 12.4 °F 86% 29.98 in 10.0 mi SE 12.7 mph - N/A   Scattered Clouds
2:15 AM 15.8 °F 0.9 °F 12.7 °F 88% 29.97 in 10.0 mi SE 15.0 mph 18.4 mph N/A   Mostly Cloudy
2:35 AM 16.0 °F 1.1 °F 13.1 °F 88% 29.96 in 10.0 mi SE 15.0 mph 19.6 mph N/A   Overcast
2:55 AM 16.5 °F 1.8 °F 13.8 °F 89% 29.94 in 7.0 mi SE 15.0 mph 20.7 mph N/A   Overcast
3:15 AM 16.9 °F 2.3 °F 14.5 °F 91% 29.93 in 5.0 mi SE 15.0 mph - N/A   Overcast
3:35 AM 17.4 °F 3.5 °F 14.9 °F 90% 29.93 in 2.5 mi SE 13.8 mph - N/A Snow Light Snow
3:55 AM 18.1 °F 5.0 °F 16.0 °F 91% 29.92 in 3.0 mi SE 12.7 mph - N/A   Overcast
4:15 AM 18.9 °F 6.5 °F 17.1 °F 93% 29.92 in 5.0 mi SE 11.5 mph - N/A   Overcast
4:35 AM 19.4 °F 6.6 °F 17.8 °F 93% 29.91 in 5.0 mi SE 12.7 mph - N/A   Overcast
4:55 AM 20.3 °F 7.7 °F 18.5 °F 93% 29.90 in 5.0 mi SE 12.7 mph - N/A   Overcast
5:15 AM 20.8 °F 9.0 °F 19.2 °F 93% 29.89 in 5.0 mi ESE 11.5 mph - N/A   Overcast
5:35 AM 21.6 °F 9.3 °F 20.1 °F 94% 29.88 in 4.0 mi SE 12.7 mph - N/A   Overcast
5:55 AM 22.8 °F 9.9 °F 21.6 °F 95% 29.87 in 3.0 mi SE 15.0 mph - N/A   Overcast
6:15 AM 23.9 °F 11.2 °F 22.6 °F 95% 29.86 in 3.0 mi SE 15.0 mph - N/A   Overcast
6:35 AM 24.4 °F 12.4 °F 23.0 °F 94% 29.86 in 3.0 mi SE 13.8 mph - N/A   Overcast
6:55 AM 24.8 °F 11.5 °F 23.5 °F 95% 29.84 in 2.5 mi SE 17.3 mph - N/A Snow Light Snow
7:15 AM 25.3 °F 11.8 °F 23.9 °F 94% 29.83 in 2.5 mi SE 18.4 mph - N/A Snow Light Snow
7:35 AM 25.5 °F 12.4 °F 24.1 °F 94% 29.83 in 1.2 mi SE 17.3 mph 21.9 mph N/A Snow Light Snow
7:55 AM 25.9 °F 13.3 °F 24.4 °F 94% 29.84 in 1.2 mi SE 16.1 mph - N/A Snow Light Snow
8:15 AM 26.2 °F 12.6 °F 24.8 °F 94% 29.83 in 1.0 mi SE 19.6 mph - N/A Snow Light Snow
8:35 AM 26.6 °F 12.7 °F 25.3 °F 95% 29.82 in 1.2 mi SSE 20.7 mph - N/A Snow Light Snow
8:55 AM 27.1 °F 14.5 °F 25.7 °F 94% 29.80 in 1.0 mi SE 17.3 mph 24.2 mph N/A Snow Light Snow
9:15 AM 27.5 °F 15.9 °F 25.9 °F 94% 29.81 in 0.8 mi SE 15.0 mph 21.9 mph N/A Snow Light Snow
9:35 AM 27.5 °F 15.9 °F 26.2 °F 95% 29.81 in 0.8 mi SE 15.0 mph 21.9 mph N/A Snow Light Snow
9:55 AM 28.0 °F 17.0 °F 26.4 °F 94% 29.79 in 1.0 mi SE 13.8 mph - N/A Snow Light Snow
10:15 AM 28.2 °F 16.8 °F 26.8 °F 94% 29.79 in 1.0 mi SE 15.0 mph - N/A   Overcast
10:35 AM 28.8 °F 16.6 °F 27.1 °F 94% 29.79 in 1.0 mi SE 17.3 mph - N/A   Overcast
10:55 AM 29.3 °F 17.7 °F 27.5 °F 93% 29.77 in 1.0 mi SE 16.1 mph 20.7 mph N/A   Overcast
11:15 AM 29.7 °F 18.6 °F 28.2 °F 94% 29.76 in 0.8 mi SE 15.0 mph 24.2 mph N/A   Overcast
11:35 AM 30.2 °F 18.9 °F 28.6 °F 94% 29.76 in 0.8 mi SE 16.1 mph 19.6 mph N/A   Overcast
12:15 PM 31.3 °F 21.6 °F 29.8 °F 94% 29.73 in 0.5 mi SE 12.7 mph - N/A Fog Light Freezing Fog
12:35 PM 31.8 °F 21.8 °F 30.6 °F 95% 29.71 in 0.8 mi SE 13.8 mph - N/A   Overcast
12:55 PM 32.0 °F 22.5 °F 30.9 °F 96% 29.70 in 0.8 mi SSE 12.7 mph 18.4 mph N/A   Overcast
1:15 PM 32.0 °F 22.5 °F 31.3 °F 97% 29.69 in 0.8 mi SE 12.7 mph - N/A   Overcast
1:35 PM 32.4 °F 24.0 °F 31.6 °F 97% 29.69 in 0.8 mi SE 10.4 mph - N/A   Overcast
2:15 PM 32.9 °F 24.1 °F 32.0 °F 96% 29.67 in 0.8 mi SE 11.5 mph - N/A   Overcast
2:35 PM 33.1 °F 23.4 °F 32.0 °F 96% 29.66 in 0.8 mi SE 13.8 mph - N/A   Overcast
2:55 PM 33.3 °F 25.1 °F 32.2 °F 96% 29.66 in 0.8 mi SE 10.4 mph - N/A   Overcast
3:15 PM 33.3 °F 24.1 °F 32.2 °F 96% 29.66 in 1.0 mi SE 12.7 mph - N/A   Overcast
3:35 PM 33.4 °F 23.9 °F 32.5 °F 96% 29.64 in 0.8 mi SE 13.8 mph - N/A   Overcast
3:55 PM 33.4 °F 24.8 °F 32.5 °F 96% 29.65 in 1.0 mi SE 11.5 mph - N/A   Overcast
4:15 PM 33.6 °F 25.6 °F 32.7 °F 96% 29.64 in 1.2 mi SE 10.4 mph - N/A   Overcast
4:35 PM 33.6 °F 26.8 °F 32.7 °F 96% 29.63 in 1.0 mi SE 8.1 mph - N/A   Overcast
4:55 PM 33.8 °F 26.4 °F 32.9 °F 96% 29.63 in 1.2 mi SE 9.2 mph - N/A   Overcast
5:15 PM 33.8 °F 25.3 °F 32.9 °F 96% 29.62 in 1.2 mi SE 11.5 mph - N/A   Overcast
5:35 PM 34.0 °F 26.6 °F 33.1 °F 96% 29.62 in 2.5 mi SE 9.2 mph - N/A   Overcast
5:55 PM 34.0 °F 26.6 °F 33.1 °F 96% 29.62 in 1.8 mi SE 9.2 mph - N/A   Overcast
6:15 PM 34.2 °F 26.2 °F 33.4 °F 97% 29.61 in 1.8 mi SE 10.4 mph - N/A   Overcast
6:35 PM 34.5 °F 25.7 °F 33.8 °F 97% 29.60 in 2.5 mi SE 12.7 mph - N/A   Overcast
6:55 PM 34.7 °F 26.9 °F 34.0 °F 97% 29.59 in 4.0 mi SE 10.4 mph - N/A   Overcast
7:15 PM 34.9 °F 27.1 °F 34.0 °F 97% 29.59 in 4.0 mi SE 10.4 mph - N/A   Overcast
7:35 PM 34.7 °F 26.9 °F 34.0 °F 97% 29.57 in 1.8 mi SE 10.4 mph - N/A   Overcast
7:55 PM 35.2 °F 27.6 °F 34.7 °F 98% 29.56 in 1.5 mi SE 10.4 mph 18.4 mph N/A   Overcast
8:15 PM 35.4 °F 26.0 °F 34.7 °F 97% 29.55 in 1.2 mi SSE 15.0 mph - N/A   Overcast
8:35 PM 35.6 °F 26.6 °F 34.7 °F 97% 29.53 in 1.0 mi SE 13.8 mph - N/A Rain Light Rain
8:55 PM 35.6 °F 27.5 °F 34.9 °F 97% 29.51 in 1.5 mi SE 11.5 mph 16.1 mph 0.01 in Rain Light Rain
9:15 PM 36.1 °F 28.2 °F 35.6 °F 98% 29.48 in 1.8 mi SE 11.5 mph - N/A Rain Light Rain
9:35 PM 36.5 °F 29.2 °F 35.8 °F 97% 29.46 in 1.8 mi ESE 10.4 mph - N/A   Overcast
9:55 PM 36.9 °F 30.7 °F 36.1 °F 97% 29.44 in 1.2 mi ESE 8.1 mph - N/A   Overcast
10:15 PM 37.2 °F 31.2 °F 36.5 °F 97% 29.44 in 1.2 mi SE 8.1 mph - N/A   Overcast
10:35 PM 37.4 °F 31.4 °F 36.5 °F 97% 29.41 in 1.2 mi ESE 8.1 mph - N/A Snow Light Snow
10:55 PM 37.6 °F 31.0 °F 36.7 °F 97% 29.40 in 1.5 mi SE 9.2 mph - N/A   Overcast
11:15 PM 37.2 °F 30.6 °F 36.5 °F 97% 29.39 in 1.0 mi SE 9.2 mph - N/A   Overcast
11:35 PM 37.4 °F 31.4 °F 36.5 °F 97% 29.38 in 0.5 mi SE 8.1 mph - N/A Fog Fog